Regional Weather Roundup
Issued by NWS

Home | Current Version | Previous Version | Graphics & Text | Print | Product List | Glossary On
Versions: 1 2 3 4 5 6 7 8 9 10 11 12 13 14 15 16 17 18 19 20 21 22 23 24 25 26 27 28 29 30 31 32 33 34 35 36 37 38 39 40 41 42 43 44 45 46 47 48 49 50
907
ASUS43 KBIS 240010
RWRND

NORTH DAKOTA REGIONAL WEATHER ROUNDUP
NATIONAL WEATHER SERVICE BISMARCK ND
700 PM CDT MON OCT 23 2017

NOTE: "FAIR" INDICATES FEW OR NO CLOUDS BELOW 12,000 FEET WITH NO
SIGNIFICANT WEATHER AND/OR OBSTRUCTIONS TO VISIBILITY.


NDZ001>003-009>011-017-240100-
NORTHWEST NORTH DAKOTA

CITY           SKY/WX    TMP DP  RH WIND       PRES   REMARKS
WILLISTON      CLEAR     50  27  40 NW16      30.33R
6HR MIN TEMP:  50; 6HR MAX TEMP:  58; 6HR PCP: TRACE;

MINOT          CLEAR     47  31  53 NW18      30.21R
MINOT AFB      CLEAR     46  31  55 NW17      30.19R
$$

NDZ018>021-031>035-040>046-240100-
SOUTHWEST NORTH DAKOTA

CITY           SKY/WX    TMP DP  RH WIND       PRES   REMARKS
BISMARCK       CLOUDY    52  30  43 NW23G39   30.21R
6HR MIN TEMP:  52; 6HR MAX TEMP:  59; 6HR PCP: TRACE;

DICKINSON      CLEAR     50  25  37 NW21G32   30.27R
GARRISON         N/A     47  31  53 NW20G31   30.22R
6HR MIN TEMP:  47; 6HR MAX TEMP:  55;

HETTINGER ARPT PTCLDY    50  23  34 NW25G33   30.29R
$$

NDZ004>008-012>016-024-026-027-054-240100-
NORTHEAST NORTH DAKOTA

CITY           SKY/WX    TMP DP  RH WIND       PRES   REMARKS
GRAND FORKS    CLEAR     42  30  62 N18       30.06R
GRND FRKS AFB  CLEAR     41  28  61 N15       30.08R
DEVILS LAKE    CLEAR     44  30  57 NW15      30.13R
$$

NDZ022-023-025-028>030-036>039-047>053-240100-
SOUTHEAST NORTH DAKOTA

CITY           SKY/WX    TMP DP  RH WIND       PRES   REMARKS
FARGO          CLOUDY    48  31  51 N18G28    30.02R
6HR MIN TEMP:  48; 6HR MAX TEMP:  57;

JAMESTOWN      CLEAR     45  34  65 NW24G38   30.10R
$$





USA.gov is the U.S. government's official web portal to all federal, state and local government web resources and services.